Location: M�hltal
(47.1833°N, 11.4333°E)
Time: 19:38:00
(UTC+00:00)

Daily predictions for brighter satellites

Satellite Brightness Start Highest point End
(mag) Time Altitude Azimuth Time Altitude Azimuth Time Altitude Azimuth
Meteor 1-5 Rocket 4.4 17:35:16 10° SSE 17:40:26 48° E 17:45:47 10° NNE
IRS-1C Rocket 4.1 17:37:48 10° SSE 17:43:05 87° ENE 17:48:24 10° NNW
SL-4 R/B 1.6 17:39:44 10° WNW 17:43:20 83° SSW 17:46:45 10° ESE
Okean 3 4.5 17:39:59 10° NNE 17:43:36 26° ENE 17:47:14 10° SE
COSMO-SKYMED 1 2.9 17:39:23 10° N 17:43:44 73° WNW 17:48:03 10° SSW
Cosmos 1536 4.2 17:41:31 10° SE 17:44:21 19° E 17:47:11 10° NE
Cosmos 1633 Rocket 4.4 17:41:41 10° SSW 17:45:57 46° WNW 17:50:15 10° N
FALCON 9 DEB 3.4 17:43:03 10° NW 17:46:09 46° NNE 17:49:12 10° E
SeaSat 1 3.6 17:42:32 10° NE 17:46:19 22° ESE 17:50:04 10° SSE
Cosmos 2242 Rocket 3.6 17:43:09 10° N 17:47:39 66° E 17:52:03 10° SSE
MOS 1 Rocket 4.3 17:43:53 10° N 17:48:59 59° WNW 17:54:15 10° SSW
Gbstr 26 Del rocket 3.7 17:46:19 10° WNW 17:50:37 51° N 17:55:46 10° E
Cosmos 2333 Rocket 2.4 17:48:01 10° S 17:53:29 51° ESE 17:59:01 10° NE
Abrixas rocket 1.5 17:52:05 10° WNW 17:54:33 76° SSW 17:56:40 13° ESE
Meteor 2-4 Rocket 3.9 17:52:42 10° NNW 17:58:38 87° W 18:04:34 10° S
SAR-Lupe-1 4.3 17:55:41 10° NNE 17:59:10 47° E 18:02:38 10° S
Helios 1A Rocket 3.0 17:55:46 10° SSE 17:59:42 55° ENE 18:03:39 10° N
Cosmos 2322 Rocket 3.5 17:54:28 10° SW 17:59:47 43° NW 18:05:09 10° NNE
Lacrosse 4 Rocket 1.6 17:56:29 10° SSW 18:00:47 57° ESE 18:05:13 10° NE
GP-B 3.1 17:57:19 10° SSE 18:01:41 61° E 18:06:05 10° N
ARGOS 3.1 17:58:27 10° SSE 18:03:52 78° ENE 18:09:19 10° NNW
Cosmos 192 4.3 18:02:25 10° S 18:07:16 67° ESE 18:12:10 10° NNE
Cosmos 1869 Rocket 3.7 18:04:02 10° SSE 18:08:15 50° E 18:12:32 10° NNE
CZ-4 R/B 2.1 18:05:32 10° S 18:09:20 55° W 18:13:14 10° NNW
Cosmos 2219 Rocket 2.2 18:04:29 10° S 18:09:57 59° ESE 18:15:29 10° NNE
CZ-4B R/B 3.3 18:07:27 10° N 18:10:14 31° WNW 18:13:02 10° SW
FALCON 9 DEB 2.9 18:11:43 10° WNW 18:14:52 72° NNE 18:16:47 22° ESE
ERS-2 2.0 18:11:12 10° NNE 18:14:52 78° ESE 18:18:31 10° S
CZ-2C R/B 2.6 18:09:53 10° NNE 18:15:17 60° E 18:20:31 10° S
Cosmos 1689 Rocket 2.0 18:13:33 10° NNE 18:16:27 85° WNW 18:19:20 10° SSW
Cosmos 1238 Rocket 3.4 18:12:54 10° SSE 18:16:28 30° E 18:19:33 10° NNE
SL-08 RB Rocket 3.6 18:14:16 10° SSE 18:18:48 77° ENE 18:23:24 10° N
Cosmos 1378 3.4 18:15:20 10° N 18:18:55 43° ENE 18:22:27 10° SSE
USA 305 3.5 18:15:56 10° NW 18:20:03 44° NNE 18:22:40 20° E
NOSS 3-2 (A) 3.7 18:17:21 10° S 18:22:32 42° ESE 18:28:26 10° NE
CREW DRAGON DEMO-1 DEB 2.8 18:20:12 10° SW 18:22:56 51° SSE 18:23:59 30° E
HJ-1C 3.8 18:20:10 10° S 18:23:26 62° W 18:26:43 10° NNW
FALCON 9 DEB 2.9 18:21:09 10° WNW 18:24:21 72° NNE 18:25:51 28° ESE
COSMOS 2428 2.7 18:19:05 10° SSW 18:24:42 65° ESE 18:30:21 10° NNE
Cosmos 1733 Rocket 4.0 18:22:05 10° SE 18:25:39 26° E 18:29:17 10° NNE
SL-16 R/B 4.4 18:23:53 10° W 18:28:28 25° NW 18:33:06 10° N
SL-8 Rocket 4.0 18:27:23 10° S 18:33:37 89° W 18:39:51 10° N
USA 307 3.4 18:29:41 10° NW 18:33:51 48° NNE 18:35:52 27° E
Cosmos 2369 Rocket 4.3 18:32:53 10° NNE 18:34:14 11° NNE 18:35:36 10° NE
CENTAUR R/B 3.0 18:29:05 10° S 18:34:17 35° ESE 18:40:21 10° NE
USA 306 3.3 18:30:57 10° NW 18:35:09 50° NNE 18:37:06 28° E
NOSS 0 Rocket 4.2 18:30:22 10° S 18:36:06 43° ESE 18:41:52 10° NE
ATLAS CENTAUR R/B 3.6 18:33:39 10° W 18:36:26 20° NW 18:39:17 10° NNE
Cosmos 1898 Rocket 4.2 18:32:31 10° N 18:37:16 33° ENE 18:39:11 26° E
Cosmos 1066 Rocket 4.2 18:31:34 10° N 18:37:22 78° ENE 18:43:13 10° SSE
Cosmos 1743 3.2 18:36:37 10° SSE 18:40:12 37° E 18:43:50 10° NNE
Cosmos 1666 3.9 18:38:31 10° SSW 18:42:04 44° WNW 18:45:42 10° N
USA 308 3.2 18:40:30 10° NW 18:44:42 53° NNE 18:46:15 34° E
CSL-04 Rocket 4.2 18:39:25 10° S 18:44:54 63° WSW 18:50:21 10° NNW
Cosmos 2322 4.2 18:40:03 10° SW 18:45:42 63° WNW 18:51:24 10° NNE
Meteor 1-23 Rocket 4.1 18:42:10 10° N 18:47:47 74° ENE 18:53:27 10° SSE
GRACE-FO 1 4.4 18:46:49 13° S 18:50:00 68° E 18:53:41 10° N
BREEZE-M DEB (TANK) 2.9 18:47:54 10° SW 18:50:06 51° SSE 18:50:06 51° SSE
GRACE-FO 2 4.4 18:47:14 13° S 18:50:26 69° E 18:54:05 10° N
ASTEX 1 3.3 18:46:50 10° N 18:51:43 65° E 18:56:33 10° S
Cosmos 2366 rocket 4.1 18:45:33 10° S 18:51:52 81° W 18:58:18 10° N
H-2A R/B 4.1 18:47:35 10° SSW 18:52:22 31° W 18:57:09 10° NNW
SJ-6B 2.7 18:52:44 25° SSE 18:55:01 75° ENE 18:59:02 10° N
Cosmos 1674 Rocket 3.9 18:51:01 10° N 18:55:06 40° ENE 18:55:15 39° E
Cosmos 990 Rocket 4.1 18:52:48 10° NNW 18:57:54 55° ENE 18:59:41 37° ESE
Ariane Rocket 2.9 18:55:34 24° SSE 18:58:34 65° ENE 19:03:37 10° N
Cosmos 2221 Rocket 3.5 18:54:43 10° N 18:59:10 83° E 19:02:10 21° SSE
USA 186 1.9 18:59:36 52° WNW 18:59:36 52° WNW 19:01:59 10° NNW
OBJECT-B 0.7 19:02:10 74° NE 19:02:10 74° NE 19:05:13 10° N
Cosmos 1763 Rocket 3.8 18:57:07 10° S 19:02:04 41° ESE 19:07:01 10° NE
NOSS 3-2 (C) 3.5 18:58:53 10° SSW 19:04:13 48° ESE 19:08:11 21° NE
SL-08 R/B 4.5 18:58:28 10° S 19:04:54 80° E 19:11:24 10° N
Meteor 1-11 Rocket 4.2 19:00:21 10° SSW 19:05:56 62° WNW 19:11:29 10° N
Cosmos 1378 Rocket 3.9 19:05:18 10° N 19:09:21 47° ENE 19:09:21 47° ENE
Cosmos 2360 Rocket 4.4 19:05:59 10° W 19:10:36 25° NW 19:15:13 10° N
Cosmos 468 Rocket 4.0 19:08:33 10° S 19:13:42 54° ESE 19:18:51 10° NNE
FALCON 9 DEB 3.9 19:11:02 10° WNW 19:13:45 42° WSW 19:13:45 42° WSW
Cosmos 1943 Rocket 3.4 19:10:29 10° N 19:15:12 26° NE 19:15:25 26° NE
Cosmos 1821 Rocket 3.8 19:09:55 10° S 19:16:05 71° E 19:22:13 10° NNE
SJ 16-02 2.0 19:12:36 10° NNW 19:16:55 54° WSW 19:19:19 24° S
Cosmos 2237 Rocket 2.1 19:11:28 10° SSW 19:17:05 65° ESE 19:22:45 10° NNE
Cosmos 1727 Rocket 4.2 19:10:57 10° NNW 19:17:06 69° W 19:23:16 10° S
DMSP B5D2-2 4.5 19:12:26 10° N 19:17:36 63° WNW 19:22:43 10° SSW
Cosmos 1544 3.3 19:14:22 10° SSW 19:17:59 69° W 19:21:40 10° N
Cosmos 2278 Rocket 2.3 19:13:38 10° NNW 19:19:18 73° WSW 19:22:11 30° SSE
MOS 1 4.2 19:15:42 23° SSE 19:19:26 87° WSW 19:25:09 10° NNW
Cosmos 1536 4.3 19:16:46 10° SW 19:20:30 37° WNW 19:24:13 10° N
USA 81 3.9 19:16:35 10° S 19:21:51 81° E 19:27:08 10° N
Cosmos 1000 Rocket 4.4 19:15:31 10° N 19:21:51 79° E 19:25:17 29° SSE
SL-4 R/B 4.0 19:20:13 10° W 19:22:22 16° SW 19:22:57 15° SSW
Meteor 1-21 4.4 19:17:09 10° N 19:22:44 51° ENE 19:23:05 50° E
SeaSat 1 2.9 19:19:17 10° NNE 19:24:10 62° WNW 19:29:01 10° SW
SPOT 3 Rocket 3.6 19:24:24 56° E 19:24:41 57° ENE 19:29:49 10° N
Cosmos 2239 Rocket 4.4 19:19:32 10° S 19:25:47 70° E 19:32:01 10° NNE
Cosmos 1934 Rocket 4.0 19:30:07 52° E 19:30:07 52° E 19:35:54 10° NNE
Resurs 01 Rocket 2.1 19:31:41 47° NNE 19:31:41 47° NNE 19:35:05 10° N
SME Rocket 4.1 19:24:46 10° NNE 19:32:12 73° WNW 19:37:04 10° SSW
USA 234 3.2 19:33:09 46° E 19:34:56 62° SE 19:41:23 10° SW
Gbstr 26 Del rocket 3.4 19:32:58 10° WNW 19:37:51 80° SSW 19:38:19 73° SSE
Cosmos 2333 Rocket 3.9 19:32:57 10° WSW 19:38:00 32° NW 19:43:08 10° NNE
Lacrosse 4 Rocket 3.9 19:36:16 10° W 19:39:50 23° NW 19:43:28 10° N
Cosmos 1937 Rocket 3.4 19:34:50 10° NNW 19:39:49 74° NE 19:39:49 74° NE
Cosmos 2123 Rocket 3.9 19:34:08 10° N 19:40:23 69° E 19:41:02 64° ESE
USA 238 DEB 3.7 19:37:36 10° SW 19:44:11 77° NW 19:51:09 10° NE
USA 238 3.7 19:37:43 10° SW 19:44:18 78° NW 19:51:15 10° NE
Resurs 1-3 4.0 19:45:28 59° WSW 19:45:34 59° W 19:49:56 10° NNW
DELTA 2 R/B (1) 4.4 19:42:15 10° WSW 19:46:36 36° SSW 19:46:36 36° SSW
Cosmos 2219 Rocket 4.1 19:49:34 10° WSW 19:54:19 27° NW 19:59:05 10° N
Terra 4.2 20:00:54 13° NNE 20:00:54 13° NNE 20:01:41 10° NNE
USA 305 4.2 19:55:57 10° WNW 19:58:46 37° W 19:58:46 37° W
Cosmos 1980 4.2 19:56:23 10° SW 20:01:56 58° WNW 20:07:32 10° NNE
NOSS 3-2 (A) 4.3 20:07:44 10° WSW 20:13:18 46° NW 20:19:46 10° NE
Cosmos 2369 Rocket 3.5 20:14:38 10° NNW 20:18:00 31° N 20:18:00 31° N
CENTAUR R/B 3.1 20:18:37 10° WSW 20:24:34 57° NW 20:31:45 10° NE
USA 281 4.4 20:54:08 33° NNE 20:54:08 33° NNE 20:58:12 10° NNW
NOSS 3-2 (C) 4.5 20:49:41 10° WSW 20:55:13 42° NW 20:55:55 41° NNW
Cosmos 1943 Rocket 3.6 20:53:49 10° NNW 20:56:58 34° NW 20:56:58 34° NW
Cosmos 2237 Rocket 4.1 20:56:54 10° WSW 21:01:38 26° NW 21:06:23 10° N
USA 234 4.4 21:20:31 35° W 21:20:31 35° W 21:24:17 10° W
